| time (UTC) | temp F | wind direction | speed MPH | gust MPH | rain 1hr in | rain 24hr in | rain mn in | humidity % | barometer mb |
| 20260503184043 | 70 | 159 | 10.0 | 14.0 | 0.00 | 0.00 | 0.00 | 33 | 1006.7 |
| 20260503183540 | 71 | 323 | 8.0 | 9.0 | 0.00 | 0.00 | 0.00 | 33 | 1006.7 |
| 20260503183037 | 71 | 232 | 6.0 | 9.0 | 0.00 | 0.00 | 0.00 | 32 | 1006.7 |
| 20260503182536 | 71 | 33 | 7.0 | 9.0 | 0.00 | 0.00 | 0.00 | 31 | 1006.9 |
| 20260503182033 | 71 | 314 | 4.0 | 5.0 | 0.00 | 0.00 | 0.00 | 35 | 1006.7 |
| 20260503181529 | 70 | 347 | 6.0 | 9.0 | 0.00 | 0.00 | 0.00 | 33 | 1006.8 |
| 20260503181026 | 70 | 310 | 4.0 | 5.0 | 0.00 | 0.00 | 0.00 | 35 | 1006.7 |
| 20260503180523 | 70 | 132 | 6.0 | 7.0 | 0.00 | 0.00 | 0.00 | 34 | 1006.8 |
| 20260503180020 | 70 | 332 | 3.0 | 3.0 | 0.00 | 0.00 | 0.00 | 35 | 1007.1 |
| 20260503175518 | 70 | 334 | 6.0 | 9.0 | 0.00 | 0.00 | 0.00 | 35 | 1006.9 |
| 20260503175015 | 70 | 178 | 4.0 | 7.0 | 0.00 | 0.00 | 0.00 | 38 | 1006.5 |
| 20260503174513 | 70 | 213 | 2.0 | 3.0 | 0.00 | 0.00 | 0.00 | 36 | 1006.8 |
| 20260503174008 | 70 | 195 | 3.0 | 7.0 | 0.00 | 0.00 | 0.00 | 35 | 1006.9 |
| 20260503173503 | 71 | 19 | 7.0 | 12.0 | 0.00 | 0.00 | 0.00 | 34 | 1006.8 |
| 20260503173000 | 71 | 50 | 4.0 | 5.0 | 0.00 | 0.00 | 0.00 | 35 | 1006.9 |
| 20260503172458 | 70 | 165 | 3.0 | 5.0 | 0.00 | 0.00 | 0.00 | 38 | 1006.9 |
| 20260503171955 | 70 | 303 | 5.0 | 9.0 | 0.00 | 0.00 | 0.00 | 38 | 1006.8 |
| 20260503171451 | 70 | 347 | 3.0 | 5.0 | 0.00 | 0.00 | 0.00 | 39 | 1007.1 |
| 20260503170949 | 69 | 332 | 3.0 | 3.0 | 0.00 | 0.00 | 0.00 | 39 | 1006.9 |
| 20260503170444 | 69 | 39 | 6.0 | 7.0 | 0.00 | 0.00 | 0.00 | 39 | 1006.9 |
| 20260503150837 | 64 | 136 | 7.0 | 10.0 | 0.00 | 0.00 | 0.00 | 42 | 1006.8 |
| 20260503150333 | 64 | 165 | 3.0 | 5.0 | 0.00 | 0.00 | 0.00 | 43 | 1006.8 |
| 20260503140257 | 60 | 336 | 3.0 | 5.0 | 0.00 | 0.00 | 0.00 | 49 | 1006.5 |
| 20260503131227 | 56 | 47 | 4.0 | 7.0 | 0.00 | 0.00 | 0.00 | 51 | 1005.8 |
| 20260503130725 | 56 | 35 | 3.0 | 3.0 | 0.00 | 0.00 | 0.00 | 51 | 1005.8 |
| 20260503130222 | 56 | 254 | 2.0 | 3.0 | 0.00 | 0.00 | 0.00 | 50 | 1005.8 |
| 20260503120147 | 51 | 188 | 1.0 | 2.0 | 0.00 | 0.00 | 0.00 | 55 | 1005.3 |
| 20260503110615 | 51 | 159 | 0.0 | 0.0 | 0.00 | 0.00 | 0.00 | 54 | 1004.6 |
| 20260503110112 | 52 | 165 | 0.0 | 0.0 | 0.00 | 0.00 | 0.00 | 53 | 1004.3 |
| 20260503090502 | 55 | 176 | 4.0 | 7.0 | 0.00 | 0.00 | 0.00 | 47 | 1005.4 |
| 20260503081428 | 58 | 138 | 2.0 | 3.0 | 0.00 | 0.00 | 0.00 | 46 | 1005.5 |
| 20260503080925 | 58 | 163 | 0.0 | 0.0 | 0.00 | 0.00 | 0.00 | 46 | 1005.8 |
| 20260503080421 | 59 | 184 | 2.0 | 3.0 | 0.00 | 0.00 | 0.00 | 45 | 1005.9 |
| 20260503072857 | 59 | 178 | 1.0 | 2.0 | 0.00 | 0.00 | 0.00 | 47 | 1005.9 |
| 20260503072355 | 59 | 314 | 4.0 | 7.0 | 0.00 | 0.00 | 0.00 | 47 | 1006.0 |
| 20260503071851 | 59 | 186 | 2.0 | 3.0 | 0.00 | 0.00 | 0.00 | 48 | 1006.1 |
| 20260503071349 | 59 | 142 | 0.0 | 2.0 | 0.00 | 0.00 | 0.00 | 47 | 1006.1 |
| 20260503070844 | 59 | 177 | 2.0 | 2.0 | 0.00 | 0.00 | 0.00 | 47 | 1006.2 |
| 20260503070343 | 57 | 219 | 3.0 | 5.0 | 0.00 | 0.00 | 0.00 | 48 | 1006.5 |
| 20260503060303 | 56 | 166 | 0.0 | 0.0 | 0.00 | 0.00 | 0.00 | 49 | 1007.6 |
| 20260503054749 | 56 | 187 | 0.0 | 2.0 | 0.00 | 0.00 | 0.00 | 49 | 1007.9 |
| 20260503054246 | 57 | 167 | 0.0 | 0.0 | 0.00 | 0.00 | 0.00 | 48 | 1007.8 |
| 20260503053744 | 57 | 182 | 0.0 | 2.0 | 0.00 | 0.00 | 0.00 | 48 | 1007.9 |
| 20260503053242 | 57 | 170 | 0.0 | 2.0 | 0.00 | 0.00 | 0.00 | 47 | 1007.9 |
| 20260503052738 | 57 | 193 | 0.0 | 2.0 | 0.00 | 0.00 | 0.00 | 48 | 1008.0 |
| 20260503052235 | 57 | 179 | 1.0 | 2.0 | 0.00 | 0.00 | 0.00 | 48 | 1008.1 |
| 20260503051729 | 56 | 174 | 0.0 | 2.0 | 0.00 | 0.00 | 0.00 | 48 | 1008.2 |
| 20260503051228 | 57 | 186 | 1.0 | 2.0 | 0.00 | 0.00 | 0.00 | 48 | 1008.0 |
| 20260503050724 | 57 | 174 | 0.0 | 0.0 | 0.00 | 0.00 | 0.00 | 47 | 1008.0 |
| 20260503050220 | 57 | 172 | 0.0 | 0.0 | 0.00 | 0.00 | 0.00 | 47 | 1008.0 |
| 20260503045718 | 57 | 173 | 1.0 | 3.0 | 0.00 | 0.00 | 0.00 | 46 | 1008.0 |
| 20260503045216 | 57 | 197 | 2.0 | 5.0 | 0.00 | 0.00 | 0.00 | 47 | 1008.0 |
| 20260503044712 | 57 | 174 | 0.0 | 0.0 | 0.00 | 0.00 | 0.00 | 46 | 1008.0 |
| 20260503044210 | 58 | 164 | 0.0 | 0.0 | 0.00 | 0.00 | 0.00 | 46 | 1008.2 |
| 20260503043706 | 58 | 173 | 1.0 | 2.0 | 0.00 | 0.00 | 0.00 | 45 | 1008.2 |
| 20260503043204 | 58 | 167 | 0.0 | 2.0 | 0.00 | 0.00 | 0.00 | 45 | 1008.3 |
| 20260503042659 | 59 | 163 | 0.0 | 0.0 | 0.00 | 0.00 | 0.00 | 45 | 1008.2 |
| 20260503042156 | 59 | 173 | 1.0 | 2.0 | 0.00 | 0.00 | 0.00 | 45 | 1008.5 |
| 20260503041652 | 58 | 170 | 2.0 | 3.0 | 0.00 | 0.00 | 0.00 | 45 | 1008.5 |
| 20260503041150 | 58 | 172 | 0.0 | 0.0 | 0.00 | 0.00 | 0.00 | 46 | 1008.7 |
| 20260503040647 | 58 | 177 | 1.0 | 2.0 | 0.00 | 0.00 | 0.00 | 46 | 1008.7 |
| 20260503040145 | 58 | 174 | 0.0 | 2.0 | 0.00 | 0.00 | 0.00 | 46 | 1008.7 |
| 20260503035641 | 58 | 171 | 0.0 | 0.0 | 0.00 | 0.00 | 0.00 | 46 | 1008.8 |
| 20260503035139 | 59 | 169 | 0.0 | 0.0 | 0.00 | 0.00 | 0.00 | 45 | 1008.9 |
| 20260503034636 | 59 | 179 | 0.0 | 2.0 | 0.00 | 0.00 | 0.00 | 44 | 1009.0 |
| 20260503034133 | 59 | 177 | 0.0 | 2.0 | 0.00 | 0.00 | 0.00 | 46 | 1009.2 |
| 20260503033630 | 59 | 172 | 0.0 | 0.0 | 0.00 | 0.00 | 0.00 | 45 | 1009.2 |
| 20260503033128 | 59 | 167 | 0.0 | 0.0 | 0.00 | 0.00 | 0.00 | 44 | 1009.5 |
| 20260503032626 | 59 | 168 | 0.0 | 0.0 | 0.00 | 0.00 | 0.00 | 43 | 1009.4 |
| 20260503032124 | 60 | 172 | 0.0 | 0.0 | 0.00 | 0.00 | 0.00 | 43 | 1009.4 |
| 20260503031621 | 60 | 170 | 0.0 | 0.0 | 0.00 | 0.00 | 0.00 | 43 | 1009.6 |
| 20260503031119 | 61 | 166 | 2.0 | 3.0 | 0.00 | 0.00 | 0.00 | 42 | 1009.7 |
| 20260503030615 | 61 | 167 | 0.0 | 0.0 | 0.00 | 0.00 | 0.00 | 41 | 1009.7 |
| 20260503030112 | 61 | 179 | 2.0 | 2.0 | 0.00 | 0.00 | 0.00 | 41 | 1010.0 |
| 20260503025609 | 61 | 185 | 2.0 | 3.0 | 0.00 | 0.00 | 0.00 | 42 | 1010.0 |
| 20260503025107 | 61 | 169 | 0.0 | 0.0 | 0.00 | 0.00 | 0.00 | 42 | 1010.2 |
| 20260503024602 | 61 | 168 | 1.0 | 2.0 | 0.00 | 0.00 | 0.00 | 41 | 1010.3 |
| 20260503024100 | 62 | 172 | 0.0 | 0.0 | 0.00 | 0.00 | 0.00 | 42 | 1010.5 |
| 20260503023556 | 62 | 187 | 2.0 | 3.0 | 0.00 | 0.00 | 0.00 | 41 | 1010.4 |
| 20260503023054 | 61 | 165 | 1.0 | 2.0 | 0.00 | 0.00 | 0.00 | 41 | 1010.7 |
| 20260503022549 | 62 | 178 | 0.0 | 0.0 | 0.00 | 0.00 | 0.00 | 41 | 1010.4 |
| 20260503022044 | 62 | 196 | 2.0 | 3.0 | 0.00 | 0.00 | 0.00 | 41 | 1010.4 |
| 20260503021541 | 62 | 181 | 0.0 | 0.0 | 0.00 | 0.00 | 0.00 | 40 | 1010.5 |
| 20260503021038 | 62 | 155 | 0.0 | 0.0 | 0.00 | 0.00 | 0.00 | 40 | 1010.6 |
| 20260503020535 | 62 | 165 | 0.0 | 0.0 | 0.00 | 0.00 | 0.00 | 39 | 1010.8 |
| 20260503020032 | 63 | 181 | 3.0 | 3.0 | 0.00 | 0.00 | 0.00 | 38 | 1010.7 |
| 20260503015529 | 63 | 139 | 0.0 | 0.0 | 0.00 | 0.00 | 0.00 | 38 | 1010.7 |
| 20260503015026 | 63 | 260 | 1.0 | 2.0 | 0.00 | 0.00 | 0.00 | 38 | 1010.6 |
| 20260503014522 | 63 | 157 | 1.0 | 2.0 | 0.00 | 0.00 | 0.00 | 37 | 1010.6 |
| 20260503014021 | 63 | 159 | 0.0 | 0.0 | 0.00 | 0.00 | 0.00 | 37 | 1010.8 |
| 20260503013517 | 63 | 179 | 0.0 | 2.0 | 0.00 | 0.00 | 0.00 | 37 | 1010.7 |
| 20260503013015 | 63 | 161 | 2.0 | 2.0 | 0.00 | 0.00 | 0.00 | 36 | 1010.7 |
| 20260503012512 | 63 | 169 | 0.0 | 0.0 | 0.00 | 0.00 | 0.00 | 37 | 1010.5 |
| 20260503012008 | 63 | 271 | 1.0 | 3.0 | 0.00 | 0.00 | 0.00 | 37 | 1010.7 |
| 20260503011506 | 63 | 174 | 0.0 | 0.0 | 0.00 | 0.00 | 0.00 | 38 | 1010.7 |
| 20260503011003 | 63 | 240 | 1.0 | 2.0 | 0.00 | 0.00 | 0.00 | 37 | 1010.8 |
| 20260503010458 | 63 | 178 | 1.0 | 2.0 | 0.00 | 0.00 | 0.00 | 38 | 1010.7 |
| 20260503005956 | 64 | 184 | 0.0 | 0.0 | 0.00 | 0.00 | 0.00 | 37 | 1010.9 |
| 20260503005453 | 64 | 43 | 2.0 | 2.0 | 0.00 | 0.00 | 0.00 | 37 | 1010.8 |
| 20260503004950 | 64 | 190 | 0.0 | 2.0 | 0.00 | 0.00 | 0.00 | 37 | 1010.8 |
| 20260503004446 | 64 | 174 | 1.0 | 2.0 | 0.00 | 0.00 | 0.00 | 37 | 1010.7 |
| 20260503003944 | 64 | 134 | 4.0 | 5.0 | 0.00 | 0.00 | 0.00 | 36 | 1010.7 |
| 20260503003441 | 64 | 139 | 8.0 | 14.0 | 0.00 | 0.00 | 0.00 | 36 | 1010.7 |
| 20260503002938 | 64 | 197 | 4.0 | 5.0 | 0.00 | 0.00 | 0.00 | 37 | 1010.8 |
| 20260503002435 | 64 | 168 | 2.0 | 3.0 | 0.00 | 0.00 | 0.00 | 37 | 1010.9 |
| 20260503001931 | 64 | 167 | 0.0 | 0.0 | 0.00 | 0.00 | 0.00 | 38 | 1010.9 |
| 20260503001428 | 64 | 226 | 0.0 | 2.0 | 0.00 | 0.00 | 0.00 | 38 | 1011.0 |
| 20260503000926 | 64 | 168 | 0.0 | 0.0 | 0.00 | 0.00 | 0.00 | 39 | 1010.8 |
| 20260503000422 | 64 | 160 | 2.0 | 3.0 | 0.00 | 0.00 | 0.00 | 38 | 1011.0 |
| 20260502235920 | 64 | 137 | 1.0 | 2.0 | 0.00 | 0.00 | 0.00 | 38 | 1010.9 |
| 20260502235416 | 65 | 152 | 2.0 | 3.0 | 0.00 | 0.00 | 0.00 | 38 | 1011.3 |
| 20260502234914 | 65 | 179 | 4.0 | 5.0 | 0.00 | 0.00 | 0.00 | 36 | 1011.2 |
| 20260502234411 | 65 | 17 | 2.0 | 5.0 | 0.00 | 0.00 | 0.00 | 35 | 1011.1 |
| 20260502233908 | 66 | 193 | 5.0 | 7.0 | 0.00 | 0.00 | 0.00 | 34 | 1011.0 |
| 20260502233403 | 66 | 164 | 4.0 | 5.0 | 0.00 | 0.00 | 0.00 | 34 | 1010.8 |
| 20260502232900 | 66 | 76 | 2.0 | 3.0 | 0.00 | 0.00 | 0.00 | 34 | 1011.2 |
| 20260502232356 | 66 | 169 | 0.0 | 0.0 | 0.00 | 0.00 | 0.00 | 34 | 1011.3 |
| 20260502231853 | 66 | 173 | 0.0 | 0.0 | 0.00 | 0.00 | 0.00 | 34 | 1011.0 |
| 20260502231351 | 66 | 166 | 2.0 | 3.0 | 0.00 | 0.00 | 0.00 | 32 | 1011.0 |
| 20260502230849 | 66 | 182 | 2.0 | 3.0 | 0.00 | 0.00 | 0.00 | 32 | 1011.1 |
| 20260502230347 | 67 | 176 | 2.0 | 3.0 | 0.00 | 0.00 | 0.00 | 32 | 1011.1 |
| 20260502225843 | 67 | 156 | 1.0 | 2.0 | 0.00 | 0.00 | 0.00 | 33 | 1011.1 |
| 20260502225340 | 67 | 115 | 2.0 | 2.0 | 0.00 | 0.00 | 0.00 | 34 | 1011.2 |
| 20260502224837 | 67 | 133 | 2.0 | 3.0 | 0.00 | 0.00 | 0.00 | 33 | 1011.1 |
| 20260502224333 | 67 | 200 | 3.0 | 7.0 | 0.00 | 0.00 | 0.00 | 32 | 1011.3 |
| 20260502223831 | 67 | 202 | 2.0 | 5.0 | 0.00 | 0.00 | 0.00 | 32 | 1011.5 |
| 20260502223329 | 66 | 152 | 3.0 | 5.0 | 0.00 | 0.00 | 0.00 | 33 | 1011.4 |
| 20260502222826 | 66 | 176 | 1.0 | 2.0 | 0.00 | 0.00 | 0.00 | 34 | 1011.4 |
| 20260502222323 | 66 | 189 | 0.0 | 0.0 | 0.00 | 0.00 | 0.00 | 34 | 1011.5 |
| 20260502221819 | 66 | 173 | 0.0 | 0.0 | 0.00 | 0.00 | 0.00 | 34 | 1011.6 |
| 20260502221315 | 66 | 171 | 1.0 | 2.0 | 0.00 | 0.00 | 0.00 | 33 | 1011.7 |
| 20260502220813 | 66 | 160 | 3.0 | 5.0 | 0.00 | 0.00 | 0.00 | 33 | 1011.8 |
| 20260502220308 | 66 | 179 | 0.0 | 2.0 | 0.00 | 0.00 | 0.00 | 33 | 1012.0 |
| 20260502215805 | 67 | 192 | 1.0 | 3.0 | 0.00 | 0.00 | 0.00 | 33 | 1011.7 |
| 20260502215304 | 67 | 303 | 4.0 | 5.0 | 0.00 | 0.00 | 0.00 | 32 | 1012.0 |
| 20260502214800 | 67 | 221 | 2.0 | 3.0 | 0.00 | 0.00 | 0.00 | 32 | 1012.0 |
| 20260502214256 | 66 | 177 | 0.0 | 2.0 | 0.00 | 0.00 | 0.00 | 33 | 1012.0 |
| 20260502213753 | 68 | 28 | 5.0 | 7.0 | 0.00 | 0.00 | 0.00 | 31 | 1012.1 |
| 20260502213251 | 68 | 346 | 2.0 | 3.0 | 0.00 | 0.00 | 0.00 | 31 | 1012.0 |
| 20260502212749 | 68 | 5 | 4.0 | 9.0 | 0.00 | 0.00 | 0.00 | 32 | 1012.1 |
| 20260502212247 | 68 | 296 | 4.0 | 9.0 | 0.00 | 0.00 | 0.00 | 32 | 1012.3 |
| 20260502211743 | 69 | 194 | 4.0 | 5.0 | 0.00 | 0.00 | 0.00 | 30 | 1012.4 |
| 20260502211240 | 67 | 248 | 3.0 | 3.0 | 0.00 | 0.00 | 0.00 | 31 | 1012.6 |
| 20260502210737 | 69 | 164 | 4.0 | 5.0 | 0.00 | 0.00 | 0.00 | 30 | 1012.6 |
| 20260502210234 | 70 | 182 | 3.0 | 5.0 | 0.00 | 0.00 | 0.00 | 29 | 1012.7 |
| 20260502205732 | 70 | 241 | 4.0 | 5.0 | 0.00 | 0.00 | 0.00 | 30 | 1012.9 |
| 20260502205227 | 69 | 175 | 2.0 | 3.0 | 0.00 | 0.00 | 0.00 | 30 | 1012.8 |
| 20260502204725 | 69 | 213 | 2.0 | 3.0 | 0.00 | 0.00 | 0.00 | 31 | 1013.2 |
| 20260502204222 | 68 | 210 | 7.0 | 9.0 | 0.00 | 0.00 | 0.00 | 31 | 1013.1 |
| 20260502203720 | 68 | 213 | 2.0 | 3.0 | 0.00 | 0.00 | 0.00 | 32 | 1013.2 |
| 20260502203218 | 69 | 192 | 2.0 | 3.0 | 0.00 | 0.00 | 0.00 | 31 | 1013.3 |
| 20260502202711 | 68 | 198 | 3.0 | 5.0 | 0.00 | 0.00 | 0.00 | 32 | 1013.5 |
| 20260502202210 | 68 | 138 | 3.0 | 5.0 | 0.00 | 0.00 | 0.00 | 30 | 1013.5 |
| 20260502201707 | 68 | 153 | 2.0 | 3.0 | 0.00 | 0.00 | 0.00 | 31 | 1013.6 |
| 20260502201204 | 68 | 314 | 5.0 | 5.0 | 0.00 | 0.00 | 0.00 | 31 | 1013.8 |
| 20260502200659 | 68 | 118 | 4.0 | 5.0 | 0.00 | 0.00 | 0.00 | 32 | 1014.0 |
| 20260502200156 | 68 | 192 | 4.0 | 9.0 | 0.00 | 0.00 | 0.00 | 30 | 1014.0 |
| 20260502195655 | 67 | 193 | 2.0 | 2.0 | 0.00 | 0.00 | 0.00 | 33 | 1014.1 |
| 20260502195150 | 67 | 210 | 4.0 | 7.0 | 0.00 | 0.00 | 0.00 | 33 | 1014.2 |
| 20260502194647 | 67 | 242 | 3.0 | 5.0 | 0.00 | 0.00 | 0.00 | 31 | 1014.3 |
| 20260502194144 | 67 | 203 | 3.0 | 7.0 | 0.00 | 0.00 | 0.00 | 30 | 1014.3 |
| 20260502193641 | 66 | 174 | 0.0 | 2.0 | 0.00 | 0.00 | 0.00 | 34 | 1014.7 |
| 20260502193138 | 64 | 205 | 3.0 | 5.0 | 0.00 | 0.00 | 0.00 | 33 | 1014.5 |
| 20260502192633 | 64 | 191 | 2.0 | 3.0 | 0.00 | 0.00 | 0.00 | 33 | 1014.7 |
| 20260502192131 | 64 | 203 | 1.0 | 2.0 | 0.00 | 0.00 | 0.00 | 32 | 1015.0 |
| 20260502191627 | 65 | 121 | 2.0 | 3.0 | 0.00 | 0.00 | 0.00 | 31 | 1015.1 |
| 20260502191125 | 67 | 211 | 6.0 | 10.0 | 0.00 | 0.00 | 0.00 | 30 | 1015.0 |
| 20260502190622 | 67 | 197 | 2.0 | 3.0 | 0.00 | 0.00 | 0.00 | 30 | 1015.1 |
| 20260502190120 | 66 | 215 | 2.0 | 3.0 | 0.00 | 0.00 | 0.00 | 33 | 1015.1 |
| 20260502185614 | 65 | 172 | 2.0 | 3.0 | 0.00 | 0.00 | 0.00 | 33 | 1015.3 |
| 20260502185111 | 65 | 205 | 5.0 | 7.0 | 0.00 | 0.00 | 0.00 | 31 | 1015.4 |
| 20260502184608 | 65 | 286 | 2.0 | 3.0 | 0.00 | 0.00 | 0.00 | 33 | 1015.5 |